#timestamp,LO_Frequency,Hit,StdDev 
1577286015.7,286047002.1,N
1577286035.6,286047001.4,N
1577286055.4,286047003.6,N
1577286075.3,286047003.7,N
1577286095.1,286047002.9,N
1577286096.0,286047002.9,N
1577286115.8,286047003.8,N
1577286135.7,286047003.2,N
1577286155.5,286047003.4,N
1577286175.3,286047001.3,N
1577286195.2,286047001.4,N
1577286215.0,286047001.9,N
1577286215.9,286047001.9,N
1577286235.8,286047001.8,N
1577286255.6,286047002.6,N
1577286275.4,286047002.2,N
1577286295.3,286047002.2,N
1577286315.1,286047002.9,N
1577286335.8,286047004.1,Y
1577286355.7,286047001.8,P
1577286375.5,286047001.5,P
1577286395.4,286047002.2,P
1577286415.2,286047000.0,N
1577286435.0,286047002.6,Y
1577286435.9,286047002.6,P
1577286455.8,286047001.0,N
1577286475.6,286046999.7,N
1577286495.4,286047001.6,N
1577286515.3,286047002.1,N
1577286535.1,286047002.2,N
1577286555.9,286047002.2,N
1577286575.7,286047001.7,N
1577286595.5,286047003.9,Y
1577286615.4,286047000.3,P
1577286635.2,286047002.3,P
1577286655.0,286047000.4,N
1577286656.0,286047000.4,N
1577286675.8,286047000.6,N
1577286695.6,286046998.5,N
1577286715.5,286046998.9,N
1577286735.3,286046998.9,N
1577286755.1,286046998.7,N
1577286775.9,286046999.2,N
1577286795.7,286046996.8,N
1577286815.5,286046997.9,N
1577286835.4,286046995.2,Y
1577286855.2,286046997.1,P
1577286875.1,286046996.8,N
1577286876.0,286046996.8,N
1577286895.8,286046996.7,N
1577286915.6,286046996.5,Y
1577286935.5,286046999.1,P
1577286955.3,286046999.6,N
1577286975.2,286046996.7,P
1577286995.9,286046996.5,N
1577287015.7,286046999.4,N
1577287035.6,286046999.3,N
1577287055.4,286046999.3,N
1577287075.2,286046998.8,N
1577287095.1,286047002.5,N
1577287096.0,286047002.5,N
1577287115.8,286047002.4,N
1577287135.7,286047001.5,N
1577287155.5,286047001.9,N
1577287175.3,286047001.9,N
1577287195.2,286046999.7,N
1577287215.9,286046999.9,N
1577287235.7,286047002.6,N
1577287255.6,286047001.2,N
1577287275.4,286046999.0,N
1577287295.3,286047002.7,N
1577287315.1,286047002.3,N
1577287316.0,286047002.3,N
1577287335.8,286047002.8,N
1577287355.7,286047000.4,N
1577287375.5,286047000.5,N
1577287395.3,286047000.3,N
1577287415.2,286047000.2,N
1577287435.0,286046998.2,N
1577287435.9,286046998.2,N
1577287455.8,286046998.1,N
1577287475.6,286046998.8,N
1577287495.4,286046998.5,N
1577287515.3,286046998.3,N
1577287535.1,286046999.4,N
1577287555.8,286046998.5,N
1577287575.7,286046999.3,N
1577287595.5,286046997.3,N
1577287615.4,286046999.1,N
1577287635.2,286046997.3,N
1577287655.0,286046999.6,N
1577287655.9,286046999.6,N
1577287675.8,286046999.0,N
1577287695.6,286046998.2,N
1577287715.4,286046998.2,N
1577287735.3,286046998.9,N
1577287755.1,286046998.7,N
1577287775.9,286046999.2,N
1577287795.7,286046996.5,N
1577287815.5,286046999.2,N
1577287835.4,286046999.0,N
1577287855.2,286046999.5,N
1577287875.0,286047000.7,N
1577287875.9,286047000.7,N
1577287895.8,286047000.8,N
1577287915.6,286046998.4,N
1577287935.5,286046998.4,N
1577287955.3,286046996.7,Y
1577287975.1,286046999.6,P
1577287995.9,286046996.6,P
1577288015.7,286046999.2,N
1577288035.5,286046998.4,N
1577288055.4,286046998.4,N
1577288075.2,286047000.0,N
1577288095.1,286047002.5,N
1577288096.0,286047002.5,N
1577288115.8,286047000.6,N
1577288135.6,286047000.7,N
1577288155.5,286046998.7,N
1577288175.3,286047001.2,N
1577288195.1,286046998.3,N
1577288215.9,286046998.2,N
1577288235.7,286047000.5,N
1577288255.6,286047000.2,N
1577288275.4,286047002.0,N
1577288295.2,286047002.6,N
1577288315.1,286047002.2,N
1577288316.0,286047002.2,N
1577288335.8,286047002.2,N
1577288355.6,286046999.7,N
1577288375.5,286047002.7,N
1577288395.3,286047002.4,N
1577288415.2,286047002.7,N
1577288435.9,286047000.9,N
1577288455.7,286047000.8,N
1577288475.6,286047000.4,N
1577288495.4,286047002.4,N
1577288515.2,286047002.4,N
1577288535.1,286047002.4,N
1577288536.0,286047002.4,N
1577288555.8,286047002.0,N
1577288575.7,286047001.4,N
1577288595.5,286047002.6,N
1577288615.3,286047001.0,N
1577288635.2,286047000.9,N
1577288655.0,286046999.8,N
1577288655.9,286046999.8,N
1577288675.8,286047000.4,N
1577288695.6,286047002.7,N
1577288715.4,286047002.5,N
1577288735.3,286047002.0,N
1577288755.1,286047002.6,N
1577288775.8,286047001.4,N
1577288795.7,286047001.8,N
1577288815.5,286047002.0,N
1577288835.4,286047002.5,N
1577288855.2,286047002.1,N
1577288875.0,286047001.8,N
1577288875.9,286047001.8,N
1577288895.8,286047001.6,N
1577288915.6,286047004.4,Y
1577288935.4,286047000.3,P
1577288955.3,286047002.4,P
1577288975.1,286047002.6,N
1577288995.9,286046999.7,N
1577289015.7,286047001.9,N
1577289035.5,286047002.7,N
1577289055.4,286047000.0,N
1577289075.2,286047000.1,N
1577289125.1,286047000.0,E
1577289135.0,286047000.3,N
1577289165.9,286046999.0,E
1577289175.9,286046996.5,N
1577289195.7,286047000.9,P
1577289215.5,286046999.9,N
1577289235.4,286047002.4,N
1577289255.2,286047001.5,N
1577289275.0,286047004.4,N
1577289276.0,286047004.4,N
1577289295.8,286047003.0,N
1577289315.6,286047003.4,N
1577289335.5,286047005.4,N
1577289355.3,286047003.5,N
1577289375.1,286047006.0,N
1577289395.9,286047005.7,N
1577289415.7,286047003.3,N
1577289435.5,286047005.8,N
1577289455.4,286047001.5,N
1577289475.2,286047003.6,N
1577289495.1,286047001.6,N
1577289496.0,286047001.6,N
1577289515.8,286047005.7,N
1577289535.6,286047006.0,N
1577289555.5,286047003.9,N
1577289575.3,286047004.0,N
1577289595.1,286047002.0,N
